| time (UTC) | temp F | wind direction | speed MPH | gust MPH | rain 1hr in | rain 24hr in | rain mn in | humidity % | barometer mb |
| 20260504110517 | 60 | 232 | 6.0 | 9.0 | 0.00 | 0.00 | 0.00 | 68 | 1011.2 |
| 20260504100518 | 60 | 226 | 5.0 | 7.0 | 0.00 | 0.00 | 0.00 | 64 | 1011.2 |
| 20260504081516 | 62 | 226 | 7.0 | 12.0 | 0.00 | 0.00 | 0.00 | 57 | 1011.2 |
| 20260504080518 | 62 | 229 | 9.0 | 12.0 | 0.00 | 0.00 | 0.00 | 57 | 1011.1 |
| 20260504050517 | 63 | 234 | 9.0 | 15.0 | 0.00 | 0.00 | 0.00 | 50 | 1012.5 |
| 20260504045516 | 63 | 234 | 9.0 | 13.0 | 0.00 | 0.00 | 0.00 | 50 | 1012.5 |
| 20260504044516 | 63 | 229 | 9.0 | 14.0 | 0.00 | 0.00 | 0.00 | 49 | 1012.6 |
| 20260504043516 | 63 | 233 | 8.0 | 13.0 | 0.00 | 0.00 | 0.00 | 49 | 1012.7 |
| 20260504042517 | 63 | 235 | 9.0 | 13.0 | 0.00 | 0.00 | 0.00 | 50 | 1012.6 |
| 20260504041517 | 62 | 232 | 8.0 | 12.0 | 0.00 | 0.00 | 0.00 | 51 | 1012.7 |
| 20260504040517 | 62 | 234 | 8.0 | 12.0 | 0.00 | 0.00 | 0.00 | 51 | 1012.8 |
| 20260504035517 | 62 | 229 | 8.0 | 11.0 | 0.00 | 0.00 | 0.00 | 51 | 1012.9 |
| 20260504034517 | 62 | 232 | 8.0 | 12.0 | 0.00 | 0.00 | 0.00 | 52 | 1013.0 |
| 20260504033518 | 62 | 229 | 7.0 | 11.0 | 0.00 | 0.00 | 0.00 | 52 | 1013.2 |
| 20260504032518 | 62 | 230 | 7.0 | 11.0 | 0.00 | 0.00 | 0.00 | 51 | 1013.2 |
| 20260504031518 | 62 | 227 | 8.0 | 13.0 | 0.00 | 0.00 | 0.00 | 51 | 1013.2 |
| 20260504030559 | 62 | 232 | 6.0 | 11.0 | 0.00 | 0.00 | 0.00 | 52 | 1013.3 |
| 20260504025518 | 62 | 231 | 8.0 | 11.0 | 0.00 | 0.00 | 0.00 | 52 | 1013.2 |
| 20260504024518 | 62 | 218 | 7.0 | 10.0 | 0.00 | 0.00 | 0.00 | 52 | 1013.2 |
| 20260504023518 | 62 | 217 | 7.0 | 10.0 | 0.00 | 0.00 | 0.00 | 52 | 1013.4 |
| 20260504022518 | 62 | 220 | 6.0 | 10.0 | 0.00 | 0.00 | 0.00 | 51 | 1013.6 |
| 20260504021540 | 62 | 220 | 5.0 | 9.0 | 0.00 | 0.00 | 0.00 | 51 | 1013.6 |
| 20260504020519 | 63 | 215 | 5.0 | 8.0 | 0.00 | 0.00 | 0.00 | 51 | 1013.6 |
| 20260504015516 | 63 | 226 | 5.0 | 7.0 | 0.00 | 0.00 | 0.00 | 50 | 1013.6 |
| 20260504014516 | 63 | 220 | 5.0 | 8.0 | 0.00 | 0.00 | 0.00 | 49 | 1013.6 |
| 20260504013536 | 64 | 222 | 4.0 | 6.0 | 0.00 | 0.00 | 0.00 | 49 | 1013.7 |
| 20260504012516 | 64 | 213 | 3.0 | 4.0 | 0.00 | 0.00 | 0.00 | 48 | 1013.7 |
| 20260504011517 | 65 | 212 | 3.0 | 6.0 | 0.00 | 0.00 | 0.00 | 46 | 1013.6 |
| 20260504010517 | 66 | 217 | 4.0 | 6.0 | 0.00 | 0.00 | 0.00 | 45 | 1013.6 |
| 20260504005517 | 66 | 226 | 4.0 | 7.0 | 0.00 | 0.00 | 0.00 | 44 | 1013.6 |
| 20260504004517 | 67 | 228 | 5.0 | 8.0 | 0.00 | 0.00 | 0.00 | 44 | 1013.5 |
| 20260504003518 | 67 | 229 | 6.0 | 9.0 | 0.00 | 0.00 | 0.00 | 43 | 1013.4 |
| 20260504002517 | 68 | 223 | 6.0 | 9.0 | 0.00 | 0.00 | 0.00 | 42 | 1013.4 |
| 20260504001517 | 68 | 239 | 7.0 | 10.0 | 0.00 | 0.00 | 0.00 | 42 | 1013.4 |
| 20260504000517 | 68 | 227 | 6.0 | 12.0 | 0.00 | 0.00 | 0.00 | 41 | 1013.4 |
| 20260503235519 | 69 | 236 | 6.0 | 9.0 | 0.00 | 0.00 | 0.00 | 41 | 1013.4 |
| 20260503234518 | 69 | 229 | 9.0 | 16.0 | 0.00 | 0.00 | 0.00 | 40 | 1013.4 |
| 20260503233518 | 69 | 222 | 6.0 | 11.0 | 0.00 | 0.00 | 0.00 | 40 | 1013.5 |
| 20260503232558 | 69 | 235 | 6.0 | 10.0 | 0.00 | 0.00 | 0.00 | 40 | 1013.7 |
| 20260503231518 | 69 | 244 | 7.0 | 12.0 | 0.00 | 0.00 | 0.00 | 39 | 1014.0 |
| 20260503230519 | 69 | 243 | 9.0 | 13.0 | 0.00 | 0.00 | 0.00 | 38 | 1014.0 |
| 20260503225518 | 69 | 229 | 9.0 | 17.0 | 0.00 | 0.00 | 0.00 | 39 | 1013.8 |
| 20260503224518 | 69 | 239 | 7.0 | 19.0 | 0.00 | 0.00 | 0.00 | 39 | 1014.3 |
| 20260503223519 | 69 | 224 | 8.0 | 12.0 | 0.00 | 0.00 | 0.00 | 39 | 1014.6 |
| 20260503222517 | 69 | 229 | 7.0 | 12.0 | 0.00 | 0.00 | 0.00 | 38 | 1014.9 |
| 20260503221516 | 69 | 240 | 10.0 | 16.0 | 0.00 | 0.00 | 0.00 | 38 | 1014.6 |
| 20260503220516 | 69 | 219 | 7.0 | 12.0 | 0.00 | 0.00 | 0.00 | 38 | 1014.3 |
| 20260503215519 | 69 | 225 | 7.0 | 11.0 | 0.00 | 0.00 | 0.00 | 39 | 1014.4 |
| 20260503214516 | 69 | 227 | 11.0 | 18.0 | 0.00 | 0.00 | 0.00 | 39 | 1014.8 |
| 20260503213537 | 69 | 245 | 9.0 | 14.0 | 0.00 | 0.00 | 0.00 | 38 | 1014.8 |
| 20260503212516 | 68 | 230 | 7.0 | 15.0 | 0.00 | 0.00 | 0.00 | 39 | 1015.0 |
| 20260503211537 | 69 | 234 | 8.0 | 14.0 | 0.00 | 0.00 | 0.00 | 39 | 1015.0 |
| 20260503210537 | 69 | 238 | 10.0 | 15.0 | 0.00 | 0.00 | 0.00 | 38 | 1015.2 |
| 20260503205517 | 69 | 263 | 9.0 | 15.0 | 0.00 | 0.00 | 0.00 | 38 | 1015.3 |
| 20260503204517 | 68 | 236 | 8.0 | 15.0 | 0.00 | 0.00 | 0.00 | 38 | 1015.6 |
| 20260503203537 | 68 | 235 | 5.0 | 13.0 | 0.00 | 0.00 | 0.00 | 39 | 1015.5 |
| 20260503202517 | 68 | 250 | 8.0 | 17.0 | 0.00 | 0.00 | 0.00 | 39 | 1015.8 |
| 20260503201518 | 68 | 232 | 8.0 | 14.0 | 0.00 | 0.00 | 0.00 | 40 | 1016.0 |
| 20260503200518 | 67 | 232 | 8.0 | 17.0 | 0.00 | 0.00 | 0.00 | 40 | 1016.3 |
| 20260503195539 | 67 | 248 | 7.0 | 12.0 | 0.00 | 0.00 | 0.00 | 39 | 1016.3 |
| 20260503194518 | 67 | 240 | 10.0 | 17.0 | 0.00 | 0.00 | 0.00 | 39 | 1016.6 |
| 20260503193518 | 67 | 234 | 8.0 | 16.0 | 0.00 | 0.00 | 0.00 | 39 | 1016.7 |
| 20260503192521 | 67 | 261 | 9.0 | 16.0 | 0.00 | 0.00 | 0.00 | 39 | 1017.4 |
| 20260503191540 | 67 | 258 | 6.0 | 14.0 | 0.00 | 0.00 | 0.00 | 39 | 1017.0 |
| 20260503190517 | 66 | 254 | 11.0 | 18.0 | 0.00 | 0.00 | 0.00 | 39 | 1017.3 |
| 20260503185516 | 66 | 234 | 8.0 | 12.0 | 0.00 | 0.00 | 0.00 | 40 | 1017.3 |
| 20260503184516 | 66 | 235 | 8.0 | 14.0 | 0.00 | 0.02 | 0.00 | 40 | 1017.6 |
| 20260503183518 | 65 | 238 | 7.0 | 13.0 | 0.00 | 0.02 | 0.00 | 41 | 1017.7 |
| 20260503182516 | 65 | 260 | 8.0 | 18.0 | 0.00 | 0.02 | 0.00 | 41 | 1017.9 |
| 20260503181516 | 66 | 233 | 8.0 | 15.0 | 0.00 | 0.02 | 0.00 | 40 | 1017.8 |
| 20260503180516 | 65 | 256 | 8.0 | 16.0 | 0.00 | 0.02 | 0.00 | 40 | 1018.0 |
| 20260503175518 | 64 | 227 | 7.0 | 12.0 | 0.00 | 0.02 | 0.00 | 42 | 1017.9 |
| 20260503174516 | 64 | 240 | 7.0 | 12.0 | 0.00 | 0.02 | 0.00 | 42 | 1018.1 |
| 20260503173538 | 64 | 228 | 7.0 | 13.0 | 0.00 | 0.02 | 0.00 | 41 | 1018.1 |
| 20260503172518 | 64 | 236 | 8.0 | 14.0 | 0.00 | 0.02 | 0.00 | 42 | 1018.4 |
| 20260503171517 | 63 | 214 | 6.0 | 11.0 | 0.00 | 0.02 | 0.00 | 43 | 1018.5 |
| 20260503170518 | 63 | 209 | 5.0 | 10.0 | 0.00 | 0.02 | 0.00 | 42 | 1018.4 |
| 20260503150516 | 58 | 196 | 5.0 | 10.0 | 0.00 | 0.02 | 0.00 | 51 | 1019.2 |
| 20260503130538 | 49 | 224 | 3.0 | 6.0 | 0.00 | 0.02 | 0.00 | 87 | 1019.7 |